Location: ?????
(32.7281°N, 34.9563°E)
Time: 18:50:32
(UTC+00:00)

Geosat - Pass Details

Date: 29 October 2020
Orbit: 763 x 766 km, 108.0° (Epoch: 01 December)

Event Time Altitude Azimuth Distance (km) Brightness Sun altitude
Exits shadow 16:12:40 10° 28° (NNE) 2,287 6.1 -17.5°
Maximum altitude 16:17:39 76° 113° (ESE) 792 3.9 -18.6°
Drops below altitude 10° 16:22:39 10° 199° (SSW) 2,294 6.7 -19.6°
Sets 16:24:55 0° 201° (SSW) 3,216 7.6 -20.1°
